Location: St. Louis
(38.6270°N, 90.1994°W)
Time: 11:31:28
(UTC-06:00)

S-56A Canister/Altair - Pass Details

Date: 30 November 2021
Orbit: 634 x 2499 km, 38.9° (Epoch: 26 January)

Event Time Altitude Azimuth Distance (km) Brightness Sun altitude
Rises 03:14:47 0° 268° (W) 4,052 - -43.2°
Reaches altitude 10° 03:18:01 10° 268° (W) 2,818 - -42.6°
Maximum altitude 03:24:25 87° 359° (N) 791 - -41.3°
Exits shadow 03:28:37 13° 88° (E) 1,900 10.2 -40.5°
Drops below altitude 10° 03:29:08 10° 88° (E) 2,102 10.4 -40.4°
Sets 03:31:15 0° 89° (E) 2,950 11.4 -40.0°
